This is the latest recevied weather packets stored in our database for station/object KB4MLW-13. If no packets are shown the sender has not sent any weather packets the latest 10 day(s).
| Time | Temp. | Humidity | Pressure | Rain* | Wind** | Luminosity | Snow |
|---|---|---|---|---|---|---|---|
| 1788372658 | 33.89° C | 58% | 1001.1 hPa | 0 mm | - | - | - |
| 1788372598 | 33.89° C | 57% | 1001.3 hPa | 0 mm | - | - | - |
| 1788372538 | 33.89° C | 55% | 1001.3 hPa | 0 mm | - | - | - |
| 1788372478 | 34.44° C | 55% | 1001 hPa | 0 mm | - | - | - |
| 1788372442 | 34.44° C | 54% | 1001.3 hPa | 0 mm | - | - | - |
| 1788372358 | 35° C | 53% | 1001 hPa | 0 mm | - | - | - |
| 1788372298 | 35° C | 52% | 1001.2 hPa | 0 mm | - | - | - |
| 1788372208 | 35° C | 53% | 1001.3 hPa | 0 mm | - | - | - |
| 1788372148 | 34.44° C | 52% | 1001.2 hPa | 0 mm | - | - | - |
| 1788372088 | 34.44° C | 55% | 1001.2 hPa | 0 mm | - | - | - |
| 1788372028 | 34.44° C | 56% | 1001.1 hPa | 0 mm | - | - | - |
| 1788371939 | 34.44° C | 56% | 1001.3 hPa | 0 mm | - | - | - |
| 1788371878 | 34.44° C | 57% | 1001.4 hPa | 0 mm | - | - | - |
| 1788371818 | 34.44° C | 55% | 1001.4 hPa | 0 mm | - | - | - |
| 1788371758 | 34.44° C | 56% | 1001.2 hPa | 0 mm | - | - | - |
| 1788371669 | 34.44° C | 55% | 1001.3 hPa | 0 mm | - | - | - |
| 1788371578 | 35° C | 55% | 1001.3 hPa | 0 mm | - | - | - |
| 1788371518 | 35° C | 54% | 1001.6 hPa | 0 mm | - | - | - |
| 1788371430 | 35° C | 57% | 1001.4 hPa | 0 mm | - | - | - |
| 1788371368 | 35° C | 54% | 1001.6 hPa | 0 mm | - | - | - |
| 1788371308 | 35° C | 56% | 1001.6 hPa | 0 mm | - | - | - |
| 1788371248 | 35.56° C | 52% | 1001.7 hPa | 0 mm | - | - | - |
| 1788371158 | 36.11° C | 52% | 1001.6 hPa | 0 mm | - | - | - |
| 1788371098 | 36.11° C | 51% | 1001.4 hPa | 0 mm | - | - | - |
| 1788371038 | 35.56° C | 52% | 1001.5 hPa | 0 mm | - | - | - |
* Rain latest hour (hover to see other rain measurements)
** Current wind speed in m/s (hover to see current wind gust speed)